STARLINK-11469, 62227

Orbit data source: Space-Track

STARLINK-11469, 62227 is a payload satellite owned by SpaceX/Seattle (US) in LEO that was launched on Thu, 05 Dec 2024 UTC via an FALCON 9 launch vehicle from the Air Force Western Test Range (AFWTR). Payload-class satellites include a variety of spacecraft equipped with specific instruments for various scientific and technological missions. These include communications satellites like Starlink; space stations such as the ISS; scientific satellites like the Hubble; Earth observation satellites from companies like Planet Labs, Umbra, and HawkEye 360; GPS; miniature CubeSats for education and research; and military/defense satellites.

Loading next visibility...
Identifier
62227, 2024-231K
Orbit
LEO
Country
Flag of USUS
Related business
Manufacturer
SpaceX/Seattle
Mission
Operational Commercial Communications
Bus & Motor
STARLINK V2MD, Unknown motor
Mass
960 kg wet, ~910 kg dry
Launch date (UTC)
2024-12-05 (1 year ago)
Launch vehicle
FALCON 9
Launch site
Air Force Western Test Range (AFWTR)
Object type
Payload
Rocket body
Debris
Shape & HBR
Box + 2 Pan, 18.1 m
Radar Cross Section
36.964 m², Large (>1 m²)

Expand to show TLE details & history
Last TLE update: 1 day ago

TLE from 1 day ago
0 STARLINK-11469
1 62227U 24231K   26032.98092034  .00166422  00000-0  13466-2 0  9992
2 62227  53.1568 277.2493 0001191 156.5265 203.5807 15.69790473 67802
Epoch: 2026-02-01T23:32Z
TLE epoch observation values (Epoch: 2026-02-01T23:32:31.517Z)
Latitude
-0.00005°
Longitude
151.93517°
Altitude
361.147 km
Speed
7.693 km/s
True Right ascension
18h 28m 59s
True Declination
0° 00' 00"
Sunlit
Object was in daylight at epoch
Visualization orbit readout
Latitude
Unknown
Longitude
Unknown
Altitude
Unknown
Speed
Unknown
Apparent Right ascension
Unknown
Apparent Declination
Unknown
Sunlit
N/A
Visualization observer readout
Local Sidereal Time
03:46:15
Azimuth
Unknown
Elevation
Unknown
Doppler factor
Unknown
Orbital elements
Apogee altitude
360.56 km
Perigee altitude
358.955 km
Semi-major axis
6,737.895 km
Eccentricity
0.00012
Inclination
53.1568°
RAAN
277.2493°
Arg. of periapsis
156.5265°
True anomaly
203.57524°
Mean anomaly
203.5807°
Eccentric anomaly
203.57797°
Mean motion
3.92425 °/min
Orbital period
91.74 mins
BSTAR
0.0013466
Loading maneuver chart data...
Computing Atmospheric mass density...
Loading historical data...
Loading historical data...
Loading historical data...
Loading historical data...
Loading historical data...
Loading historical data...
Loading historical data...

Documentation

Showing up to 5 results
|